Time,TemperatureF,DewpointF,PressureIn,WindDirection,WindDirectionDegrees,WindSpeedMPH,WindSpeedGustMPH,Humidity,HourlyPrecipIn,Conditions,Clouds,dailyrainin,SolarRadiationWatts/m^2,SoftwareType,DateUTC
2013-02-16 00:00:00,22.9,12.9,30.16,WNW,302,2.5,3.5,65,0.00,OVC,,0.00,0.0,WeatherDisplay:10.37,2013-02-16 05:00:00,
2013-02-16 00:01:00,22.9,12.9,30.16,WNW,296,2.5,3.5,65,0.00,OVC,,0.00,0.0,WeatherDisplay:10.37,2013-02-16 05:01:00,
2013-02-16 00:06:00,22.7,12.7,30.16,West,271,1.3,2.3,65,0.00,BKN,,0.00,0.0,WeatherDisplay:10.37,2013-02-16 05:06:00,
2013-02-16 00:11:00,22.5,12.8,30.16,West,273,1.3,3.0,66,0.00,BKN,,0.00,0.0,WeatherDisplay:10.37,2013-02-16 05:11:00,
2013-02-16 00:16:00,22.3,12.7,30.16,West,276,2.9,4.6,66,0.00,BKN,,0.00,0.0,WeatherDisplay:10.37,2013-02-16 05:16:00,
2013-02-16 00:21:00,22.3,13.0,30.16,West,272,1.6,3.5,67,0.00,BKN,,0.00,0.0,WeatherDisplay:10.37,2013-02-16 05:21:00,
2013-02-16 00:23:00,22.2,12.9,30.16,West,267,2.7,5.0,67,0.00,BKN,,0.00,0.0,WeatherDisplay:10.37,2013-02-16 05:23:00,
2013-02-16 00:28:00,22.1,12.8,30.16,West,267,1.3,3.5,67,0.00,BKN,,0.00,0.0,WeatherDisplay:10.37,2013-02-16 05:28:00,
2013-02-16 00:33:00,21.9,12.6,30.16,WNW,292,2.3,3.5,67,0.00,BKN,,0.00,0.0,WeatherDisplay:10.37,2013-02-16 05:33:00,
2013-02-16 00:38:00,21.8,12.9,30.16,WNW,290,1.2,2.3,68,0.00,BKN,,0.00,0.0,WeatherDisplay:10.37,2013-02-16 05:38:00,
2013-02-16 00:43:00,21.7,13.1,30.16,WNW,289,0.6,2.3,69,0.00,BKN,,0.00,0.0,WeatherDisplay:10.37,2013-02-16 05:43:00,
2013-02-16 00:48:00,21.6,13.0,30.15,WNW,289,0.5,2.3,69,0.00,BKN,,0.00,0.0,WeatherDisplay:10.37,2013-02-16 05:48:00,
2013-02-16 00:53:00,21.4,13.1,30.15,WNW,289,0.3,1.1,70,0.00,BKN,,0.00,0.0,WeatherDisplay:10.37,2013-02-16 05:53:00,
2013-02-16 00:58:00,21.1,13.2,30.15,WNW,289,0.0,1.1,71,0.00,BKN,,0.00,0.0,WeatherDisplay:10.37,2013-02-16 05:58:00,
2013-02-16 01:03:00,20.8,13.2,30.15,WNW,289,0.0,0.0,72,0.00,BKN,,0.00,0.0,WeatherDisplay:10.37,2013-02-16 06:03:00,
2013-02-16 01:08:00,20.5,12.9,30.15,WNW,289,0.0,0.0,72,0.00,BKN,,0.00,0.0,WeatherDisplay:10.37,2013-02-16 06:08:00,
2013-02-16 01:13:00,20.1,12.8,30.15,WNW,289,0.0,0.0,73,0.00,BKN,,0.00,0.0,WeatherDisplay:10.37,2013-02-16 06:13:00,
2013-02-16 01:18:00,19.8,12.5,30.15,WNW,289,0.0,0.0,73,0.00,BKN,,0.00,0.0,WeatherDisplay:10.37,2013-02-16 06:18:00,
2013-02-16 01:23:00,19.4,13.1,30.15,WNW,289,0.1,0.0,76,0.00,BKN,,0.00,0.0,WeatherDisplay:10.37,2013-02-16 06:23:00,
2013-02-16 01:28:00,19.0,13.3,30.15,WNW,289,1.0,2.0,78,0.00,BKN,,0.00,0.0,WeatherDisplay:10.37,2013-02-16 06:28:00,
2013-02-16 01:33:00,18.8,13.7,30.15,WNW,289,0.5,1.1,80,0.00,BKN,,0.00,0.0,WeatherDisplay:10.37,2013-02-16 06:33:00,
2013-02-16 01:38:00,18.8,13.4,30.15,WNW,289,0.6,2.3,79,0.00,BKN,,0.00,0.0,WeatherDisplay:10.37,2013-02-16 06:38:00,
2013-02-16 01:43:00,18.8,13.1,30.15,West,269,1.9,4.6,78,0.00,BKN,,0.00,0.0,WeatherDisplay:10.37,2013-02-16 06:43:00,
2013-02-16 01:49:00,19.2,13.2,30.15,West,264,2.7,3.5,77,0.00,BKN,,0.00,0.0,WeatherDisplay:10.37,2013-02-16 06:49:00,
2013-02-16 01:54:00,19.6,13.3,30.15,WSW,252,3.9,5.0,76,0.00,BKN,,0.00,0.0,WeatherDisplay:10.37,2013-02-16 06:54:00,
2013-02-16 01:59:00,20.0,13.3,30.15,West,265,2.1,3.5,75,0.00,BKN,,0.00,0.0,WeatherDisplay:10.37,2013-02-16 06:59:00,
2013-02-16 02:04:00,20.1,13.4,30.15,West,261,0.6,3.5,75,0.00,SCT,,0.00,0.0,WeatherDisplay:10.37,2013-02-16 07:04:00,
2013-02-16 02:09:00,20.1,13.4,30.15,West,261,2.0,3.5,75,0.00,SCT,,0.00,0.0,WeatherDisplay:10.37,2013-02-16 07:09:00,
2013-02-16 02:14:00,20.0,13.6,30.15,West,261,0.8,2.3,76,0.00,SCT,,0.00,0.0,WeatherDisplay:10.37,2013-02-16 07:14:00,
2013-02-16 02:19:00,19.9,13.6,30.15,West,261,1.4,3.5,76,0.00,SCT,,0.00,0.0,WeatherDisplay:10.37,2013-02-16 07:19:00,
2013-02-16 02:24:00,19.9,13.9,30.14,West,261,1.1,2.0,77,0.00,SCT,,0.00,0.0,WeatherDisplay:10.37,2013-02-16 07:24:00,
2013-02-16 02:29:00,19.9,13.9,30.14,West,261,2.6,3.5,77,0.00,SCT,,0.00,0.0,WeatherDisplay:10.37,2013-02-16 07:29:00,
2013-02-16 02:34:00,19.9,13.6,30.14,West,261,2.5,4.0,76,0.00,SCT,,0.00,0.0,WeatherDisplay:10.37,2013-02-16 07:34:00,
2013-02-16 02:39:00,20.1,13.7,30.15,West,259,2.6,4.6,76,0.00,SCT,,0.00,0.0,WeatherDisplay:10.37,2013-02-16 07:39:00,
2013-02-16 02:44:00,20.2,13.8,30.14,West,259,2.4,3.5,76,0.00,SCT,,0.00,0.0,WeatherDisplay:10.37,2013-02-16 07:44:00,
2013-02-16 02:49:00,20.2,13.8,30.14,West,259,1.3,3.5,76,0.00,SCT,,0.00,0.0,WeatherDisplay:10.37,2013-02-16 07:49:00,
2013-02-16 02:54:00,20.1,13.7,30.14,West,259,2.2,3.5,76,0.00,SCT,,0.00,0.0,WeatherDisplay:10.37,2013-02-16 07:54:00,
2013-02-16 02:59:00,20.0,13.6,30.14,West,259,0.2,2.3,76,0.00,SCT,,0.00,0.0,WeatherDisplay:10.37,2013-02-16 07:59:00,
2013-02-16 03:04:00,19.8,13.5,30.14,West,259,1.1,2.3,76,0.00,SCT,,0.00,0.0,WeatherDisplay:10.37,2013-02-16 08:04:00,
2013-02-16 03:09:00,19.5,13.5,30.14,West,259,0.9,2.3,77,0.00,SCT,,0.00,0.0,WeatherDisplay:10.37,2013-02-16 08:09:00,
2013-02-16 03:14:00,19.2,13.5,30.14,West,259,0.4,1.1,78,0.00,SCT,,0.00,0.0,WeatherDisplay:10.37,2013-02-16 08:14:00,
2013-02-16 03:19:00,18.9,13.5,30.13,West,259,0.2,2.3,79,0.00,SCT,,0.00,0.0,WeatherDisplay:10.37,2013-02-16 08:19:00,
2013-02-16 03:24:00,18.6,13.2,30.13,West,259,1.2,3.5,79,0.00,SCT,,0.00,0.0,WeatherDisplay:10.37,2013-02-16 08:24:00,
2013-02-16 03:29:00,18.4,13.3,30.13,West,265,1.1,2.3,80,0.00,SCT,,0.00,0.0,WeatherDisplay:10.37,2013-02-16 08:29:00,
2013-02-16 03:34:00,18.3,12.9,30.13,West,265,0.0,0.0,79,0.00,SCT,,0.00,0.0,WeatherDisplay:10.37,2013-02-16 08:34:00,
2013-02-16 03:39:00,18.1,13.0,30.13,West,265,0.2,0.0,80,0.00,SCT,,0.00,0.0,WeatherDisplay:10.37,2013-02-16 08:39:00,
2013-02-16 03:44:00,17.6,12.5,30.12,West,265,0.0,1.1,80,0.00,SCT,,0.00,0.0,WeatherDisplay:10.37,2013-02-16 08:44:00,
2013-02-16 03:49:00,17.1,12.0,30.12,West,265,0.0,0.0,80,0.00,SCT,,0.00,0.0,WeatherDisplay:10.37,2013-02-16 08:49:00,
2013-02-16 03:54:00,16.8,12.0,30.12,West,265,0.0,0.0,81,0.00,SCT,,0.00,0.0,WeatherDisplay:10.37,2013-02-16 08:54:00,
2013-02-16 03:59:00,16.5,12.0,30.13,West,265,0.3,1.1,82,0.00,SCT,,0.00,0.0,WeatherDisplay:10.37,2013-02-16 08:59:00,
2013-02-16 04:04:00,16.4,12.1,30.13,West,265,0.0,0.0,83,0.00,SCT,,0.00,0.0,WeatherDisplay:10.37,2013-02-16 09:04:00,
2013-02-16 04:09:00,16.2,12.2,30.13,West,265,0.0,0.0,84,0.00,SCT,,0.00,0.0,WeatherDisplay:10.37,2013-02-16 09:09:00,
2013-02-16 04:14:00,16.1,12.1,30.12,West,265,0.0,0.0,84,0.00,SCT,,0.00,0.0,WeatherDisplay:10.37,2013-02-16 09:14:00,
2013-02-16 04:19:00,15.9,12.2,30.12,West,265,0.0,0.0,85,0.00,SCT,,0.00,0.0,WeatherDisplay:10.37,2013-02-16 09:19:00,
2013-02-16 04:24:00,15.8,12.1,30.12,West,265,0.0,0.0,85,0.00,SCT,,0.00,0.0,WeatherDisplay:10.37,2013-02-16 09:24:00,
2013-02-16 04:29:00,15.8,12.4,30.12,West,265,0.0,0.0,86,0.00,SCT,,0.00,0.0,WeatherDisplay:10.37,2013-02-16 09:29:00,
2013-02-16 04:34:00,15.8,12.4,30.12,West,265,0.0,0.0,86,0.00,SCT,,0.00,0.0,WeatherDisplay:10.37,2013-02-16 09:34:00,
2013-02-16 04:39:00,15.8,12.4,30.12,West,265,0.0,0.0,86,0.00,SCT,,0.00,0.0,WeatherDisplay:10.37,2013-02-16 09:39:00,
2013-02-16 04:44:00,15.8,12.4,30.12,West,265,0.3,1.1,86,0.00,SCT,,0.00,0.0,WeatherDisplay:10.37,2013-02-16 09:44:00,
2013-02-16 04:49:00,16.0,12.8,30.12,West,265,0.2,1.1,87,0.00,SCT,,0.00,0.0,WeatherDisplay:10.37,2013-02-16 09:49:00,
2013-02-16 04:54:00,16.1,12.9,30.12,West,265,0.0,0.0,87,0.00,SCT,,0.00,0.0,WeatherDisplay:10.37,2013-02-16 09:54:00,
2013-02-16 04:59:00,16.1,12.9,30.12,West,265,0.0,0.0,87,0.00,SCT,,0.00,0.0,WeatherDisplay:10.37,2013-02-16 09:59:00,
2013-02-16 05:04:00,16.2,13.0,30.12,West,265,0.0,0.0,87,0.00,SCT,,0.00,0.0,WeatherDisplay:10.37,2013-02-16 10:04:00,
2013-02-16 05:09:00,16.2,13.3,30.12,West,265,0.0,0.0,88,0.00,SCT,,0.00,0.0,WeatherDisplay:10.37,2013-02-16 10:09:00,
2013-02-16 05:14:00,16.1,13.4,30.12,West,265,0.0,0.0,89,0.00,BKN,,0.00,0.0,WeatherDisplay:10.37,2013-02-16 10:14:00,
2013-02-16 05:19:00,16.3,13.6,30.12,West,265,0.0,0.0,89,0.00,BKN,,0.00,0.0,WeatherDisplay:10.37,2013-02-16 10:19:00,
2013-02-16 05:24:00,16.4,13.5,30.12,West,265,0.0,1.1,88,0.00,BKN,,0.00,0.0,WeatherDisplay:10.37,2013-02-16 10:24:00,
2013-02-16 05:29:00,16.5,13.6,30.12,West,265,0.0,0.0,88,0.00,BKN,,0.00,0.0,WeatherDisplay:10.37,2013-02-16 10:29:00,
2013-02-16 05:34:00,16.7,13.8,30.11,West,265,0.6,1.1,88,0.00,BKN,,0.00,0.0,WeatherDisplay:10.37,2013-02-16 10:34:00,
2013-02-16 05:39:00,17.0,14.3,30.11,West,265,0.1,1.1,89,0.00,BKN,,0.00,0.0,WeatherDisplay:10.37,2013-02-16 10:39:00,
2013-02-16 05:44:00,17.2,14.5,30.11,West,265,0.0,0.0,89,0.00,BKN,,0.00,0.0,WeatherDisplay:10.37,2013-02-16 10:44:00,
2013-02-16 05:49:00,17.3,14.6,30.11,West,265,0.0,0.0,89,0.00,BKN,,0.00,0.0,WeatherDisplay:10.37,2013-02-16 10:49:00,
2013-02-16 05:54:00,17.3,14.6,30.11,West,265,0.0,0.0,89,0.00,BKN,,0.00,0.0,WeatherDisplay:10.37,2013-02-16 10:54:00,
2013-02-16 05:59:00,17.5,14.8,30.11,West,265,0.0,0.0,89,0.00,BKN,,0.00,0.0,WeatherDisplay:10.37,2013-02-16 10:59:00,
2013-02-16 06:04:00,17.6,14.9,30.11,West,265,0.0,0.0,89,0.00,BKN,,0.00,0.0,WeatherDisplay:10.37,2013-02-16 11:04:00,
2013-02-16 06:09:00,17.7,15.0,30.11,West,265,0.0,0.0,89,0.00,BKN,,0.00,0.0,WeatherDisplay:10.37,2013-02-16 11:09:00,
2013-02-16 06:14:00,17.7,14.8,30.10,West,265,0.0,0.0,88,0.00,OVC,,0.00,0.0,WeatherDisplay:10.37,2013-02-16 11:14:00,
2013-02-16 06:19:00,17.9,15.2,30.11,West,265,0.2,1.1,89,0.00,OVC,,0.00,0.0,WeatherDisplay:10.37,2013-02-16 11:19:00,
2013-02-16 06:24:00,17.9,14.9,30.11,West,265,0.0,0.0,88,0.00,OVC,,0.00,0.0,WeatherDisplay:10.37,2013-02-16 11:24:00,
2013-02-16 06:29:00,17.9,14.9,30.10,West,265,0.0,0.0,88,0.00,OVC,,0.00,0.0,WeatherDisplay:10.37,2013-02-16 11:29:00,
2013-02-16 06:34:00,18.0,15.0,30.10,West,265,0.0,0.0,88,0.00,OVC,,0.00,0.0,WeatherDisplay:10.37,2013-02-16 11:34:00,
2013-02-16 06:39:00,17.9,14.7,30.10,West,265,0.0,0.0,87,0.00,OVC,,0.00,0.0,WeatherDisplay:10.37,2013-02-16 11:39:00,
2013-02-16 06:44:00,17.9,14.7,30.10,West,265,0.0,0.0,87,0.00,OVC,,0.00,0.0,WeatherDisplay:10.37,2013-02-16 11:44:00,
2013-02-16 06:49:00,17.9,14.7,30.10,West,265,0.1,1.1,87,0.00,OVC,,0.00,0.0,WeatherDisplay:10.37,2013-02-16 11:49:00,
2013-02-16 06:54:00,17.8,14.6,30.10,West,265,0.0,0.0,87,0.00,OVC,,0.00,0.0,WeatherDisplay:10.37,2013-02-16 11:54:00,
2013-02-16 06:59:00,17.7,14.5,30.09,West,265,0.0,0.0,87,0.00,OVC,,0.00,0.0,WeatherDisplay:10.37,2013-02-16 11:59:00,
2013-02-16 07:04:00,17.6,14.4,30.09,West,265,0.0,0.0,87,0.00,OVC,,0.00,0.0,WeatherDisplay:10.37,2013-02-16 12:04:00,
2013-02-16 07:09:00,17.4,14.5,30.09,West,265,0.0,0.0,88,0.00,OVC,,0.00,0.0,WeatherDisplay:10.37,2013-02-16 12:09:00,
2013-02-16 07:14:00,17.2,14.3,30.09,West,265,0.0,1.1,88,0.00,BKN,,0.00,0.0,WeatherDisplay:10.37,2013-02-16 12:14:00,
2013-02-16 07:19:00,17.0,14.1,30.09,West,265,0.0,0.0,88,0.00,BKN,,0.00,0.0,WeatherDisplay:10.37,2013-02-16 12:19:00,
2013-02-16 07:24:00,16.8,13.9,30.09,West,265,0.0,0.0,88,0.00,BKN,,0.00,0.0,WeatherDisplay:10.37,2013-02-16 12:24:00,
2013-02-16 07:29:00,16.6,13.9,30.09,West,265,0.0,0.0,89,0.00,BKN,,0.00,5.0,WeatherDisplay:10.37,2013-02-16 12:29:00,
2013-02-16 07:34:00,16.5,13.8,30.09,West,265,0.0,0.0,89,0.00,BKN,,0.00,7.0,WeatherDisplay:10.37,2013-02-16 12:34:00,
2013-02-16 07:39:00,16.3,13.6,30.09,West,265,0.0,0.0,89,0.00,BKN,,0.00,11.0,WeatherDisplay:10.37,2013-02-16 12:39:00,
2013-02-16 07:44:00,16.2,13.5,30.09,West,265,0.0,0.0,89,0.00,BKN,,0.00,12.0,WeatherDisplay:10.37,2013-02-16 12:44:00,
2013-02-16 07:49:00,16.1,13.4,30.09,West,265,0.0,0.0,89,0.00,BKN,,0.00,18.0,WeatherDisplay:10.37,2013-02-16 12:49:00,
2013-02-16 07:54:00,15.9,13.2,30.09,West,265,0.0,0.0,89,0.00,BKN,,0.00,23.0,WeatherDisplay:10.37,2013-02-16 12:54:00,
2013-02-16 07:59:00,15.8,13.4,30.09,West,265,0.0,0.0,90,0.00,BKN,,0.00,26.0,WeatherDisplay:10.37,2013-02-16 12:59:00,
2013-02-16 08:04:00,15.8,13.4,30.09,West,265,0.0,0.0,90,0.00,BKN,,0.00,32.0,WeatherDisplay:10.37,2013-02-16 13:04:00,
2013-02-16 08:09:00,15.9,13.5,30.09,West,265,0.0,0.0,90,0.00,BKN,,0.00,30.0,WeatherDisplay:10.37,2013-02-16 13:09:00,
2013-02-16 08:14:00,15.9,13.5,30.09,West,265,0.0,0.0,90,0.00,BKN,,0.00,32.0,WeatherDisplay:10.37,2013-02-16 13:14:00,
2013-02-16 08:19:00,15.9,13.5,30.09,West,265,0.0,0.0,90,0.00,BKN,,0.00,35.0,WeatherDisplay:10.37,2013-02-16 13:19:00,
2013-02-16 08:24:00,16.1,13.9,30.10,West,265,0.0,0.0,91,0.00,BKN,,0.00,46.0,WeatherDisplay:10.37,2013-02-16 13:24:00,
2013-02-16 08:29:00,16.2,14.0,30.10,West,265,0.0,0.0,91,0.00,BKN,,0.00,63.0,WeatherDisplay:10.37,2013-02-16 13:29:00,
2013-02-16 08:34:00,16.3,14.1,30.10,West,265,0.0,0.0,91,0.00,BKN,,0.00,70.0,WeatherDisplay:10.37,2013-02-16 13:34:00,
2013-02-16 08:39:00,16.6,14.7,30.10,West,265,0.0,1.1,92,0.00,BKN,,0.00,77.0,WeatherDisplay:10.37,2013-02-16 13:39:00,
2013-02-16 08:44:00,17.2,15.5,30.10,West,265,0.0,1.1,93,0.00,BKN,,0.00,79.0,WeatherDisplay:10.37,2013-02-16 13:44:00,
2013-02-16 08:49:00,17.8,16.4,30.10,West,265,0.5,1.1,94,0.00,BKN,,0.00,83.0,WeatherDisplay:10.37,2013-02-16 13:49:00,
2013-02-16 08:54:00,18.5,16.8,30.10,West,265,0.8,2.0,93,0.00,BKN,,0.00,90.0,WeatherDisplay:10.37,2013-02-16 13:54:00,
2013-02-16 08:59:00,19.3,16.8,30.10,West,265,1.4,2.3,90,0.00,BKN,,0.00,97.0,WeatherDisplay:10.37,2013-02-16 13:59:00,
2013-02-16 09:04:00,19.9,17.2,30.10,West,265,1.4,2.3,89,0.00,OVC,,0.00,93.0,WeatherDisplay:10.37,2013-02-16 14:04:00,
2013-02-16 09:09:00,20.5,17.5,30.10,West,265,1.3,2.0,88,0.00,OVC,,0.00,81.0,WeatherDisplay:10.37,2013-02-16 14:09:00,
2013-02-16 09:14:00,20.9,17.9,30.10,West,265,1.5,2.3,88,0.00,OVC,,0.00,91.0,WeatherDisplay:10.37,2013-02-16 14:14:00,
2013-02-16 09:19:00,21.3,18.3,30.10,West,265,1.7,2.3,88,0.00,OVC,,0.00,98.0,WeatherDisplay:10.37,2013-02-16 14:19:00,
2013-02-16 09:24:00,21.5,18.2,30.10,West,265,0.3,2.3,87,0.00,OVC,,0.00,118.0,WeatherDisplay:10.37,2013-02-16 14:24:00,
2013-02-16 09:29:00,21.8,18.5,30.09,West,265,0.9,3.5,87,0.00,OVC,,0.00,134.0,WeatherDisplay:10.37,2013-02-16 14:29:00,
2013-02-16 09:34:00,21.9,18.4,30.09,West,265,2.6,4.0,86,0.00,OVC,,0.00,142.0,WeatherDisplay:10.37,2013-02-16 14:34:00,
2013-02-16 09:39:00,22.1,18.6,30.09,West,265,1.9,3.5,86,0.00,OVC,,0.00,153.0,WeatherDisplay:10.37,2013-02-16 14:39:00,
2013-02-16 09:44:00,22.1,17.7,30.09,West,265,1.6,2.3,83,0.00,OVC,,0.00,146.0,WeatherDisplay:10.37,2013-02-16 14:44:00,
2013-02-16 09:49:00,22.2,18.4,30.09,West,265,0.8,2.3,85,0.00,OVC,,0.00,148.0,WeatherDisplay:10.37,2013-02-16 14:49:00,
2013-02-16 09:54:00,22.5,18.1,30.09,West,265,1.7,2.3,83,0.00,OVC,,0.00,171.0,WeatherDisplay:10.37,2013-02-16 14:54:00,
2013-02-16 10:00:00,22.6,18.2,30.09,SW,224,2.1,2.3,83,0.00,OVC,,0.00,202.0,WeatherDisplay:10.37,2013-02-16 15:00:00,
2013-02-16 10:05:00,22.9,18.8,30.09,SW,224,0.9,2.3,84,0.00,-SN,,0.00,236.0,WeatherDisplay:10.37,2013-02-16 15:05:00,
2013-02-16 10:10:00,23.3,19.2,30.09,SW,234,0.5,2.3,84,0.00,-SN,,0.00,200.0,WeatherDisplay:10.37,2013-02-16 15:10:00,
2013-02-16 10:15:00,23.5,19.4,30.09,WSW,257,1.2,2.0,84,0.00,-SN,,0.00,197.0,WeatherDisplay:10.37,2013-02-16 15:15:00,
2013-02-16 10:20:00,23.8,19.1,30.08,West,275,1.2,3.5,82,0.00,-SN,,0.00,262.0,WeatherDisplay:10.37,2013-02-16 15:20:00,
2013-02-16 10:25:00,23.9,18.9,30.08,West,275,2.9,4.0,81,0.00,-SN,,0.00,288.0,WeatherDisplay:10.37,2013-02-16 15:25:00,
2013-02-16 10:30:00,23.8,18.8,30.08,West,271,2.0,3.5,81,0.00,-SN,,0.00,197.0,WeatherDisplay:10.37,2013-02-16 15:30:00,
2013-02-16 10:35:00,23.8,19.1,30.08,SW,230,2.7,3.5,82,0.00,-SN,,0.00,230.0,WeatherDisplay:10.37,2013-02-16 15:35:00,
2013-02-16 10:40:00,23.8,19.1,30.08,West,271,1.5,2.3,82,0.00,-SN,,0.00,285.0,WeatherDisplay:10.37,2013-02-16 15:40:00,
2013-02-16 10:45:00,23.9,18.9,30.08,West,267,1.5,3.0,81,0.00,-SN,,0.00,214.0,WeatherDisplay:10.37,2013-02-16 15:45:00,
2013-02-16 10:50:00,24.0,18.7,30.08,West,275,1.3,3.5,80,0.00,-SN,,0.00,156.0,WeatherDisplay:10.37,2013-02-16 15:50:00,
2013-02-16 10:55:00,24.0,18.7,30.08,West,275,0.8,2.3,80,0.00,-SN,,0.00,162.0,WeatherDisplay:10.37,2013-02-16 15:55:00,
2013-02-16 11:00:00,24.1,18.8,30.08,West,272,1.3,3.5,80,0.00,-SN,,0.00,216.0,WeatherDisplay:10.37,2013-02-16 16:00:00,
2013-02-16 11:05:00,24.2,18.9,30.08,West,270,2.2,5.0,80,0.00,-SN,,0.00,227.0,WeatherDisplay:10.37,2013-02-16 16:05:00,
2013-02-16 11:10:00,24.2,18.9,30.08,WSW,246,1.2,3.5,80,0.00,-SN,,0.00,216.0,WeatherDisplay:10.37,2013-02-16 16:10:00,
2013-02-16 11:15:00,24.4,19.1,30.08,WSW,241,1.7,4.6,80,0.00,-SN,,0.00,237.0,WeatherDisplay:10.37,2013-02-16 16:15:00,
2013-02-16 11:20:00,24.5,18.9,30.07,WNW,298,1.2,2.3,79,0.00,-SN,,0.00,232.0,WeatherDisplay:10.37,2013-02-16 16:20:00,
2013-02-16 11:25:00,24.6,19.6,30.07,West,281,1.9,3.5,81,0.00,-SN,,0.00,192.0,WeatherDisplay:10.37,2013-02-16 16:25:00,
2013-02-16 11:30:00,24.4,19.1,30.07,NW,323,2.1,3.5,80,0.00,-SN,,0.00,139.0,WeatherDisplay:10.37,2013-02-16 16:30:00,
2013-02-16 11:35:00,23.9,18.9,30.07,NNW,348,2.0,3.0,81,0.00,-SN,,0.00,169.0,WeatherDisplay:10.37,2013-02-16 16:35:00,
2013-02-16 11:40:00,23.8,18.5,30.07,NNW,346,1.2,3.5,80,0.00,-SN,,0.00,167.0,WeatherDisplay:10.37,2013-02-16 16:40:00,
2013-02-16 11:45:00,23.7,18.7,30.07,North,355,1.2,3.5,81,0.00,-SN,,0.00,137.0,WeatherDisplay:10.37,2013-02-16 16:45:00,
2013-02-16 11:50:00,23.7,18.4,30.07,NNW,348,1.8,3.5,80,0.00,-SN,,0.00,135.0,WeatherDisplay:10.37,2013-02-16 16:50:00,
2013-02-16 11:55:00,23.7,18.7,30.07,WNW,299,1.5,3.5,81,0.00,-SN,,0.00,153.0,WeatherDisplay:10.37,2013-02-16 16:55:00,
2013-02-16 12:00:00,23.7,18.4,30.07,WNW,292,1.8,3.5,80,0.00,-SN,,0.00,141.0,WeatherDisplay:10.37,2013-02-16 17:00:00,
2013-02-16 12:05:00,23.6,18.9,30.07,West,279,2.0,3.5,82,0.00,-SN,,0.00,163.0,WeatherDisplay:10.37,2013-02-16 17:05:00,
2013-02-16 12:10:00,23.8,19.4,30.07,NNE,20,1.1,4.0,83,0.00,-SN,,0.00,225.0,WeatherDisplay:10.37,2013-02-16 17:10:00,
2013-02-16 12:15:00,23.8,19.9,30.07,West,274,1.5,3.5,85,0.00,-SN,,0.00,195.0,WeatherDisplay:10.37,2013-02-16 17:15:00,
2013-02-16 12:20:00,23.8,19.9,30.07,WNW,282,1.3,3.0,85,0.00,-SN,,0.00,134.0,WeatherDisplay:10.37,2013-02-16 17:20:00,
2013-02-16 12:25:00,23.7,20.1,30.07,WNW,286,2.1,4.6,86,0.00,-SN,,0.00,104.0,WeatherDisplay:10.37,2013-02-16 17:25:00,
2013-02-16 12:30:00,23.5,20.5,30.07,West,278,1.9,4.6,88,0.00,-SN,,0.00,90.0,WeatherDisplay:10.37,2013-02-16 17:30:00,
2013-02-16 12:35:00,23.0,19.7,30.07,West,271,1.8,6.9,87,0.00,-SN,,0.00,97.0,WeatherDisplay:10.37,2013-02-16 17:35:00,
2013-02-16 12:40:00,22.8,19.8,30.06,WSW,252,1.9,3.5,88,0.00,-SN,,0.00,113.0,WeatherDisplay:10.37,2013-02-16 17:40:00,
2013-02-16 12:45:00,22.9,19.9,30.06,WSW,257,4.3,6.0,88,0.00,-SN,,0.00,121.0,WeatherDisplay:10.37,2013-02-16 17:45:00,
2013-02-16 12:50:00,22.9,19.9,30.06,West,264,2.8,4.6,88,0.00,-SN,,0.00,151.0,WeatherDisplay:10.37,2013-02-16 17:50:00,
2013-02-16 12:55:00,23.1,19.0,30.06,West,281,2.5,3.5,84,0.00,BKN,,0.00,190.0,WeatherDisplay:10.37,2013-02-16 17:55:00,
2013-02-16 13:00:00,23.7,20.1,30.05,West,268,1.5,3.5,86,0.00,BKN,,0.00,181.0,WeatherDisplay:10.37,2013-02-16 18:00:00,
2013-02-16 13:05:00,24.3,18.7,30.05,West,280,1.2,2.3,79,0.00,BKN,,0.00,188.0,WeatherDisplay:10.37,2013-02-16 18:05:00,
2013-02-16 13:10:00,24.7,18.5,30.05,WNW,294,2.3,4.6,77,0.01,RA,,0.01,179.0,WeatherDisplay:10.37,2013-02-16 18:10:00,
2013-02-16 13:15:00,25.2,18.4,30.05,WNW,288,1.3,3.5,75,0.01, +SN,,0.01,197.0,WeatherDisplay:10.37,2013-02-16 18:15:00,
2013-02-16 13:20:00,25.4,18.9,30.05,West,273,3.1,3.5,76,0.01, +SN,,0.01,237.0,WeatherDisplay:10.37,2013-02-16 18:20:00,
2013-02-16 13:25:00,25.8,19.3,30.05,NW,304,2.1,3.5,76,0.01, +SN,,0.01,276.0,WeatherDisplay:10.37,2013-02-16 18:25:00,
2013-02-16 13:30:00,26.1,18.9,30.04,WSW,257,3.8,5.0,74,0.01, +SN,,0.01,309.0,WeatherDisplay:10.37,2013-02-16 18:30:00,
2013-02-16 13:35:00,26.1,19.3,30.04,WNW,290,2.0,3.5,75,0.01,-SN,,0.01,387.0,WeatherDisplay:10.37,2013-02-16 18:35:00,
2013-02-16 13:40:00,26.4,18.9,30.04,NNW,328,1.1,3.5,73,0.01,-SN,,0.01,350.0,WeatherDisplay:10.37,2013-02-16 18:40:00,
2013-02-16 13:45:00,26.5,19.3,30.04,NNE,22,1.7,2.3,74,0.02,-SN,,0.02,272.0,WeatherDisplay:10.37,2013-02-16 18:45:00,
2013-02-16 13:50:00,26.6,18.5,30.04,NW,312,1.6,3.5,71,0.02,-SN,,0.02,264.0,WeatherDisplay:10.37,2013-02-16 18:50:00,
2013-02-16 13:55:00,26.7,18.2,30.04,West,273,2.7,4.6,70,0.02,-SN,,0.02,236.0,WeatherDisplay:10.37,2013-02-16 18:55:00,
2013-02-16 14:00:00,26.7,18.2,30.04,NW,314,2.1,3.5,70,0.02,-SN,,0.02,207.0,WeatherDisplay:10.37,2013-02-16 19:00:00,
2013-02-16 14:05:00,26.5,18.0,30.04,NW,304,2.4,3.5,70,0.02,-SN,,0.02,186.0,WeatherDisplay:10.37,2013-02-16 19:05:00,
2013-02-16 14:10:00,26.2,20.6,30.04,North,355,2.2,8.1,79,0.01,-SN,,0.02,181.0,WeatherDisplay:10.37,2013-02-16 19:10:00,
2013-02-16 14:15:00,25.6,20.6,30.04,NW,304,2.0,4.6,81,0.01,OVC,,0.02,137.0,WeatherDisplay:10.37,2013-02-16 19:15:00,
2013-02-16 14:20:00,25.3,20.6,30.04,NW,307,1.9,6.9,82,0.01,OVC,,0.02,84.0,WeatherDisplay:10.37,2013-02-16 19:20:00,
2013-02-16 14:25:00,24.6,19.6,30.04,West,272,5.1,10.4,81,0.01,OVC,,0.02,139.0,WeatherDisplay:10.37,2013-02-16 19:25:00,
2013-02-16 14:30:00,23.8,19.7,30.04,West,280,2.9,6.0,84,0.01,OVC,,0.02,146.0,WeatherDisplay:10.37,2013-02-16 19:30:00,
2013-02-16 14:35:00,23.5,19.9,30.04,WNW,290,2.1,3.5,86,0.01,-SN,,0.02,192.0,WeatherDisplay:10.37,2013-02-16 19:35:00,
2013-02-16 14:40:00,23.7,19.6,30.04,WNW,300,1.3,3.5,84,0.01,-SN,,0.02,302.0,WeatherDisplay:10.37,2013-02-16 19:40:00,
2013-02-16 14:45:00,24.0,19.6,30.04,NW,321,1.5,3.5,83,0.00,-SN,,0.02,369.0,WeatherDisplay:10.37,2013-02-16 19:45:00,
2013-02-16 14:50:00,24.8,20.4,30.04,WNW,300,2.2,3.5,83,0.00,-SN,,0.02,504.0,WeatherDisplay:10.37,2013-02-16 19:50:00,
2013-02-16 14:55:00,26.0,21.3,30.03,WSW,252,1.4,3.5,82,0.00,-SN,,0.02,566.0,WeatherDisplay:10.37,2013-02-16 19:55:00,
2013-02-16 15:00:00,26.6,21.3,30.03,WNW,293,2.8,5.8,80,0.00,-SN,,0.02,476.0,WeatherDisplay:10.37,2013-02-16 20:00:00,
2013-02-16 15:05:00,26.8,21.5,30.03,WNW,283,2.6,4.0,80,0.00,-SN,,0.02,540.0,WeatherDisplay:10.37,2013-02-16 20:05:00,
2013-02-16 15:10:00,26.7,21.4,30.03,North,5,1.0,3.5,80,0.00,-SN,,0.02,526.0,WeatherDisplay:10.37,2013-02-16 20:10:00,
2013-02-16 15:15:00,27.0,20.4,30.03,NNW,341,2.7,3.5,76,0.00,-SN,,0.02,584.0,WeatherDisplay:10.37,2013-02-16 20:15:00,
2013-02-16 15:20:00,26.6,18.8,30.03,WNW,288,2.2,5.8,72,0.00,-SN,,0.02,144.0,WeatherDisplay:10.37,2013-02-16 20:20:00,
2013-02-16 15:25:00,26.2,17.7,30.03,NNW,332,2.5,3.5,70,0.00,-SN,,0.02,102.0,WeatherDisplay:10.37,2013-02-16 20:25:00,
2013-02-16 15:30:00,25.6,17.5,30.03,WNW,289,1.4,3.5,71,0.00,-SN,,0.02,123.0,WeatherDisplay:10.37,2013-02-16 20:30:00,
2013-02-16 15:35:00,25.5,17.4,30.03,WNW,283,1.9,3.5,71,0.00,-SN,,0.02,176.0,WeatherDisplay:10.37,2013-02-16 20:35:00,
2013-02-16 15:40:00,25.6,16.5,30.03,NNW,345,2.8,4.6,68,0.00,-SN,,0.02,120.0,WeatherDisplay:10.37,2013-02-16 20:40:00,
2013-02-16 15:45:00,25.4,15.3,30.03,NW,307,2.9,4.6,65,0.00,-SN,,0.02,97.0,WeatherDisplay:10.37,2013-02-16 20:45:00,
2013-02-16 15:50:00,25.3,15.2,30.04,WSW,257,4.5,7.0,65,0.00,-SN,,0.02,102.0,WeatherDisplay:10.37,2013-02-16 20:50:00,
2013-02-16 15:55:00,25.3,14.8,30.04,WNW,299,2.9,3.5,64,0.00,-SN,,0.02,229.0,WeatherDisplay:10.37,2013-02-16 20:55:00,
2013-02-16 16:00:00,25.8,15.6,30.04,West,264,3.6,4.6,65,0.00,-SN,,0.02,253.0,WeatherDisplay:10.37,2013-02-16 21:00:00,
2013-02-16 16:05:00,26.1,14.1,30.04,West,276,6.9,11.5,60,0.00,OVC,,0.02,188.0,WeatherDisplay:10.37,2013-02-16 21:05:00,
2013-02-16 16:10:00,26.1,12.9,30.04,West,278,2.7,12.7,57,0.00,OVC,,0.02,186.0,WeatherDisplay:10.37,2013-02-16 21:10:00,
2013-02-16 16:15:00,26.1,14.8,30.05,West,265,3.1,5.8,62,0.00,OVC,,0.02,120.0,WeatherDisplay:10.37,2013-02-16 21:15:00,
2013-02-16 16:20:00,25.4,16.3,30.05,WNW,291,4.6,8.1,68,0.00,OVC,,0.02,107.0,WeatherDisplay:10.37,2013-02-16 21:20:00,
2013-02-16 16:25:00,25.1,16.4,30.05,NW,323,2.6,4.6,69,0.00,OVC,,0.02,250.0,WeatherDisplay:10.37,2013-02-16 21:25:00,
2013-02-16 16:30:00,25.4,16.3,30.05,North,5,3.9,8.1,68,0.00,OVC,,0.02,373.0,WeatherDisplay:10.37,2013-02-16 21:30:00,
2013-02-16 16:35:00,25.5,16.4,30.06,North,350,3.8,5.8,68,0.00,OVC,,0.02,278.0,WeatherDisplay:10.37,2013-02-16 21:35:00,
2013-02-16 16:40:00,25.3,16.2,30.06,North,360,3.7,6.9,68,0.00,OVC,,0.02,135.0,WeatherDisplay:10.37,2013-02-16 21:40:00,
2013-02-16 16:45:00,25.3,16.9,30.06,NW,306,2.3,3.5,70,0.00,OVC,,0.02,86.0,WeatherDisplay:10.37,2013-02-16 21:45:00,
2013-02-16 16:50:00,25.1,15.3,30.06,WSW,255,3.1,5.8,66,0.00,OVC,,0.02,104.0,WeatherDisplay:10.37,2013-02-16 21:50:00,
2013-02-16 16:55:00,24.7,14.6,30.06,NNW,339,3.0,5.8,65,0.00,OVC,,0.02,63.0,WeatherDisplay:10.37,2013-02-16 21:55:00,
2013-02-16 17:00:00,24.2,14.1,30.06,North,5,3.4,4.6,65,0.00,OVC,,0.02,90.0,WeatherDisplay:10.37,2013-02-16 22:00:00,
2013-02-16 17:05:00,24.1,13.7,30.06,West,265,3.2,6.9,64,0.00,-SN,,0.02,70.0,WeatherDisplay:10.37,2013-02-16 22:05:00,
2013-02-16 17:10:00,23.9,12.8,30.06,WNW,284,3.9,7.0,62,0.00,-SN,,0.02,63.0,WeatherDisplay:10.37,2013-02-16 22:10:00,
2013-02-16 17:15:00,23.9,12.4,30.06,WNW,292,4.3,6.9,61,0.00,-SN,,0.02,69.0,WeatherDisplay:10.37,2013-02-16 22:15:00,
2013-02-16 17:20:00,23.9,11.6,30.06,WNW,286,3.0,4.0,59,0.00,-SN,,0.02,56.0,WeatherDisplay:10.37,2013-02-16 22:20:00,
2013-02-16 17:25:00,23.8,11.5,30.06,NNW,345,2.6,4.6,59,0.00,-SN,,0.02,53.0,WeatherDisplay:10.37,2013-02-16 22:25:00,
2013-02-16 17:30:00,23.8,11.5,30.06,West,272,2.9,5.8,59,0.00,-SN,,0.02,51.0,WeatherDisplay:10.37,2013-02-16 22:30:00,
2013-02-16 17:35:00,23.8,10.4,30.06,West,273,4.5,9.2,56,0.00,-SN,,0.02,44.0,WeatherDisplay:10.37,2013-02-16 22:35:00,
2013-02-16 17:40:00,23.5,10.9,30.06,NW,308,2.8,4.0,58,0.00,-SN,,0.02,30.0,WeatherDisplay:10.37,2013-02-16 22:40:00,
2013-02-16 17:45:00,23.1,11.6,30.07,North,360,2.7,6.9,61,0.00,-SN,,0.02,19.0,WeatherDisplay:10.37,2013-02-16 22:45:00,
2013-02-16 17:50:00,22.7,11.6,30.07,West,276,3.4,5.8,62,0.00,-SN,,0.02,16.0,WeatherDisplay:10.37,2013-02-16 22:50:00,
2013-02-16 17:55:00,22.4,12.1,30.07,WNW,289,3.0,5.8,64,0.00,-SN,,0.02,12.0,WeatherDisplay:10.37,2013-02-16 22:55:00,
2013-02-16 18:00:00,22.1,11.4,30.07,West,272,2.7,5.8,63,0.00,-SN,,0.02,0.0,WeatherDisplay:10.37,2013-02-16 23:00:00,
2013-02-16 18:05:00,21.8,11.5,30.08,West,277,2.4,4.6,64,0.00,BKN,,0.02,7.0,WeatherDisplay:10.37,2013-02-16 23:05:00,
2013-02-16 18:10:00,21.6,10.2,30.08,WNW,290,2.3,3.5,61,0.00,BKN,,0.02,5.0,WeatherDisplay:10.37,2013-02-16 23:10:00,
2013-02-16 18:16:00,21.5,10.5,30.08,WNW,292,2.0,3.5,62,0.00,BKN,,0.02,0.0,WeatherDisplay:10.37,2013-02-16 23:16:00,
2013-02-16 18:21:00,21.4,10.4,30.08,WNW,292,1.3,2.3,62,0.00,BKN,,0.02,0.0,WeatherDisplay:10.37,2013-02-16 23:21:00,
2013-02-16 18:26:00,21.4,11.5,30.08,West,280,2.2,4.6,65,0.00,BKN,,0.02,0.0,WeatherDisplay:10.37,2013-02-16 23:26:00,
2013-02-16 18:31:00,21.3,11.7,30.09,WNW,289,1.8,4.6,66,0.00,BKN,,0.02,0.0,WeatherDisplay:10.37,2013-02-16 23:31:00,
2013-02-16 18:36:00,21.2,12.6,30.09,West,277,2.7,3.5,69,0.00,BKN,,0.02,0.0,WeatherDisplay:10.37,2013-02-16 23:36:00,
2013-02-16 18:41:00,21.0,13.4,30.10,WNW,294,3.0,6.0,72,0.00,BKN,,0.02,0.0,WeatherDisplay:10.37,2013-02-16 23:41:00,
2013-02-16 18:46:00,20.7,13.1,30.10,NW,313,4.5,5.8,72,0.00,BKN,,0.02,0.0,WeatherDisplay:10.37,2013-02-16 23:46:00,
2013-02-16 18:51:00,20.4,13.4,30.10,WNW,295,2.4,3.5,74,0.00,BKN,,0.02,0.0,WeatherDisplay:10.37,2013-02-16 23:51:00,
2013-02-16 18:56:00,20.2,13.5,30.10,WNW,286,2.5,3.5,75,0.00,BKN,,0.02,0.0,WeatherDisplay:10.37,2013-02-16 23:56:00,
2013-02-16 19:01:00,20.0,13.3,30.10,West,279,2.2,3.5,75,0.00,BKN,,0.02,0.0,WeatherDisplay:10.37,2013-02-17 00:01:00,
2013-02-16 19:06:00,19.7,13.1,30.10,West,272,1.8,3.5,75,0.00,BKN,,0.02,0.0,WeatherDisplay:10.37,2013-02-17 00:06:00,
2013-02-16 19:11:00,19.5,13.2,30.10,West,272,0.5,2.0,76,0.00,BKN,,0.02,0.0,WeatherDisplay:10.37,2013-02-17 00:11:00,
2013-02-16 19:16:00,19.3,13.3,30.10,West,272,0.1,1.1,77,0.00,BKN,,0.02,0.0,WeatherDisplay:10.37,2013-02-17 00:16:00,
2013-02-16 19:21:00,19.0,13.0,30.10,West,272,1.0,2.3,77,0.00,BKN,,0.02,0.0,WeatherDisplay:10.37,2013-02-17 00:21:00,
2013-02-16 19:26:00,18.6,12.9,30.10,West,272,1.5,2.3,78,0.00,BKN,,0.02,0.0,WeatherDisplay:10.37,2013-02-17 00:26:00,
2013-02-16 19:31:00,18.4,13.0,30.10,West,272,0.3,1.1,79,0.00,BKN,,0.02,0.0,WeatherDisplay:10.37,2013-02-17 00:31:00,
2013-02-16 19:36:00,18.2,12.8,30.10,West,272,0.0,1.0,79,0.00,BKN,,0.02,0.0,WeatherDisplay:10.37,2013-02-17 00:36:00,
2013-02-16 19:41:00,18.0,12.6,30.10,West,272,0.8,2.3,79,0.00,BKN,,0.02,0.0,WeatherDisplay:10.37,2013-02-17 00:41:00,
2013-02-16 19:46:00,18.2,12.2,30.10,WNW,284,2.5,4.6,77,0.00,BKN,,0.02,0.0,WeatherDisplay:10.37,2013-02-17 00:46:00,
2013-02-16 19:51:00,18.6,12.0,30.11,NW,321,0.6,1.1,75,0.00,BKN,,0.02,0.0,WeatherDisplay:10.37,2013-02-17 00:51:00,
2013-02-16 19:56:00,18.7,12.1,30.11,NW,304,0.8,2.3,75,0.00,BKN,,0.02,0.0,WeatherDisplay:10.37,2013-02-17 00:56:00,
2013-02-16 20:01:00,18.7,12.1,30.11,NW,306,1.6,3.5,75,0.00,BKN,,0.02,0.0,WeatherDisplay:10.37,2013-02-17 01:01:00,
2013-02-16 20:06:00,18.7,12.1,30.11,NW,306,1.3,2.3,75,0.00,BKN,,0.02,0.0,WeatherDisplay:10.37,2013-02-17 01:06:00,
2013-02-16 20:11:00,18.6,12.0,30.11,NW,306,0.9,2.3,75,0.00,SCT,,0.02,0.0,WeatherDisplay:10.37,2013-02-17 01:11:00,
2013-02-16 20:16:00,18.6,11.7,30.11,WNW,284,1.3,3.5,74,0.00,SCT,,0.02,0.0,WeatherDisplay:10.37,2013-02-17 01:16:00,
2013-02-16 20:21:00,18.5,11.6,30.11,WNW,284,0.5,2.3,74,0.00,SCT,,0.02,0.0,WeatherDisplay:10.37,2013-02-17 01:21:00,
2013-02-16 20:26:00,18.4,11.5,30.11,WNW,286,2.2,3.5,74,0.00,SCT,,0.02,0.0,WeatherDisplay:10.37,2013-02-17 01:26:00,
2013-02-16 20:31:00,18.3,11.7,30.11,WNW,286,0.9,2.3,75,0.00,SCT,,0.02,0.0,WeatherDisplay:10.37,2013-02-17 01:31:00,
2013-02-16 20:36:00,18.2,11.6,30.11,WNW,286,1.0,2.3,75,0.00,SCT,,0.02,0.0,WeatherDisplay:10.37,2013-02-17 01:36:00,
2013-02-16 20:41:00,18.1,11.8,30.11,WNW,286,0.5,1.1,76,0.00,SCT,,0.02,0.0,WeatherDisplay:10.37,2013-02-17 01:41:00,
2013-02-16 20:46:00,17.9,11.9,30.11,WNW,286,1.6,3.5,77,0.00,SCT,,0.02,0.0,WeatherDisplay:10.37,2013-02-17 01:46:00,
2013-02-16 20:51:00,17.9,12.5,30.11,WNW,285,1.7,3.5,79,0.00,SCT,,0.02,0.0,WeatherDisplay:10.37,2013-02-17 01:51:00,
2013-02-16 20:56:00,17.9,12.8,30.11,WNW,285,1.5,2.3,80,0.00,SCT,,0.02,0.0,WeatherDisplay:10.37,2013-02-17 01:56:00,
2013-02-16 21:01:00,17.9,12.8,30.11,West,269,0.9,2.0,80,0.00,SCT,,0.02,0.0,WeatherDisplay:10.37,2013-02-17 02:01:00,
2013-02-16 21:06:00,17.8,12.7,30.11,West,269,1.6,3.5,80,0.00,SCT,,0.02,0.0,WeatherDisplay:10.37,2013-02-17 02:06:00,
2013-02-16 21:11:00,17.7,12.9,30.11,West,269,1.4,3.0,81,0.00,BKN,,0.02,0.0,WeatherDisplay:10.37,2013-02-17 02:11:00,
2013-02-16 21:16:00,17.7,12.6,30.11,WNW,286,2.1,3.5,80,0.00,BKN,,0.02,0.0,WeatherDisplay:10.37,2013-02-17 02:16:00,
2013-02-16 21:21:00,17.9,12.5,30.11,WNW,282,2.1,3.5,79,0.00,BKN,,0.02,0.0,WeatherDisplay:10.37,2013-02-17 02:21:00,
2013-02-16 21:26:00,17.8,12.1,30.11,WNW,283,1.5,2.3,78,0.00,BKN,,0.02,0.0,WeatherDisplay:10.37,2013-02-17 02:26:00,
2013-02-16 21:31:00,17.8,12.1,30.11,WNW,283,1.0,3.5,78,0.00,BKN,,0.02,0.0,WeatherDisplay:10.37,2013-02-17 02:31:00,
2013-02-16 21:36:00,17.7,12.0,30.11,WNW,289,0.8,2.3,78,0.00,BKN,,0.02,0.0,WeatherDisplay:10.37,2013-02-17 02:36:00,
2013-02-16 21:41:00,17.5,11.8,30.11,WNW,290,1.5,2.3,78,0.00,BKN,,0.02,0.0,WeatherDisplay:10.37,2013-02-17 02:41:00,
2013-02-16 21:46:00,17.2,11.8,30.11,WNW,284,1.8,3.5,79,0.00,BKN,,0.02,0.0,WeatherDisplay:10.37,2013-02-17 02:46:00,
2013-02-16 21:51:00,16.9,11.5,30.11,WNW,282,0.6,1.1,79,0.00,BKN,,0.02,0.0,WeatherDisplay:10.37,2013-02-17 02:51:00,
2013-02-16 21:56:00,16.6,11.2,30.11,WNW,282,1.2,3.0,79,0.00,BKN,,0.02,0.0,WeatherDisplay:10.37,2013-02-17 02:56:00,
2013-02-16 22:01:00,16.3,11.2,30.11,WNW,282,2.1,3.5,80,0.00,BKN,,0.02,0.0,WeatherDisplay:10.37,2013-02-17 03:01:00,
2013-02-16 22:06:00,16.2,11.4,30.11,WNW,290,0.5,3.5,81,0.00,BKN,,0.02,0.0,WeatherDisplay:10.37,2013-02-17 03:06:00,
2013-02-16 22:11:00,16.1,11.6,30.11,WNW,290,0.8,1.1,82,0.00,BKN,,0.02,0.0,WeatherDisplay:10.37,2013-02-17 03:11:00,
2013-02-16 22:16:00,16.1,11.8,30.11,WNW,290,2.1,3.5,83,0.00,BKN,,0.02,0.0,WeatherDisplay:10.37,2013-02-17 03:16:00,
2013-02-16 22:21:00,16.1,11.8,30.11,WNW,282,1.0,2.3,83,0.00,SCT,,0.02,0.0,WeatherDisplay:10.37,2013-02-17 03:21:00,
2013-02-16 22:26:00,16.2,12.2,30.11,WNW,282,1.8,3.5,84,0.00,SCT,,0.02,0.0,WeatherDisplay:10.37,2013-02-17 03:26:00,
2013-02-16 22:31:00,16.3,12.0,30.11,WNW,282,1.9,3.5,83,0.00,SCT,,0.02,0.0,WeatherDisplay:10.37,2013-02-17 03:31:00,
2013-02-16 22:36:00,16.4,12.4,30.11,WNW,282,1.9,3.5,84,0.00,SCT,,0.02,0.0,WeatherDisplay:10.37,2013-02-17 03:36:00,
2013-02-16 22:41:00,16.6,12.9,30.11,West,280,1.5,3.5,85,0.00,SCT,,0.02,0.0,WeatherDisplay:10.37,2013-02-17 03:41:00,
2013-02-16 22:46:00,16.9,13.2,30.11,West,278,1.6,3.5,85,0.00,SCT,,0.02,0.0,WeatherDisplay:10.37,2013-02-17 03:46:00,
2013-02-16 22:51:00,17.1,13.1,30.11,WNW,282,1.4,3.5,84,0.00,SCT,,0.02,0.0,WeatherDisplay:10.37,2013-02-17 03:51:00,
2013-02-16 22:56:00,17.3,13.3,30.11,West,277,3.1,4.6,84,0.00,SCT,,0.02,0.0,WeatherDisplay:10.37,2013-02-17 03:56:00,
2013-02-16 23:01:00,17.3,13.0,30.11,West,273,2.0,3.5,83,0.00,SCT,,0.02,0.0,WeatherDisplay:10.37,2013-02-17 04:01:00,
2013-02-16 23:06:00,17.3,13.3,30.11,NW,324,2.3,5.8,84,0.00,SCT,,0.02,0.0,WeatherDisplay:10.37,2013-02-17 04:06:00,
2013-02-16 23:11:00,17.5,13.5,30.11,NNW,344,5.7,10.4,84,0.00,SCT,,0.02,0.0,WeatherDisplay:10.37,2013-02-17 04:11:00,
2013-02-16 23:16:00,17.6,13.6,30.11,NW,314,2.6,3.5,84,0.00,SCT,,0.02,0.0,WeatherDisplay:10.37,2013-02-17 04:16:00,
2013-02-16 23:21:00,17.7,13.7,30.11,WNW,298,3.8,6.0,84,0.00,-SN,,0.02,0.0,WeatherDisplay:10.37,2013-02-17 04:21:00,
2013-02-16 23:26:00,17.6,13.3,30.11,WNW,286,3.9,8.1,83,0.00,-SN,,0.02,0.0,WeatherDisplay:10.37,2013-02-17 04:26:00,
2013-02-16 23:31:00,17.5,13.2,30.11,WNW,286,1.0,3.5,83,0.00,-SN,,0.02,0.0,WeatherDisplay:10.37,2013-02-17 04:31:00,
2013-02-16 23:36:00,17.3,13.0,30.11,West,273,2.2,4.0,83,0.00,-SN,,0.02,0.0,WeatherDisplay:10.37,2013-02-17 04:36:00,
2013-02-16 23:41:00,17.1,12.8,30.11,NNW,340,1.4,4.6,83,0.00,-SN,,0.02,0.0,WeatherDisplay:10.37,2013-02-17 04:41:00,
2013-02-16 23:46:00,17.0,13.0,30.11,WNW,298,1.7,3.5,84,0.00,-SN,,0.02,0.0,WeatherDisplay:10.37,2013-02-17 04:46:00,
2013-02-16 23:51:00,16.9,12.9,30.11,West,279,1.3,3.5,84,0.00,-SN,,0.02,0.0,WeatherDisplay:10.37,2013-02-17 04:51:00,
2013-02-16 23:56:00,16.7,12.7,30.11,WNW,284,2.4,4.0,84,0.00,-SN,,0.02,0.0,WeatherDisplay:10.37,2013-02-17 04:56:00,